Find Starlink 32363

NORAD ID: 61678 Int'l Des: 2024-193 Owner: SPXS Country: US Constellation: starlink operational
LEOCIRCULAR

实时位置

正在加载3D地球...

关于 Starlink 32363

正在加载描述...

即将过境

Passes for default location (London). Set your location on the main map for personalized predictions.

高度历史

Loading altitude history...

两行轨道根数

1 61678U 24193T 26123.48345441 .00001450 00000-0 54077-4 0 9991
2 61678 53.1612 195.9398 0001321 84.9273 275.1880 15.34377565 84922
Epoch: May 3, 2026 • Age: 10 hours

当前状态

高度 466.1 km
速度 7.64 km/s
星下点 42.35°N, 146.71°E
发射日期 Oct 26, 2024
运行时间 1.5 years
类型 internet

技术详情

分类 Payload
质量 730.00 kg
干质量 700.00 kg
总质量 730.00 kg
长度 0.30 m
直径 4.10 m
跨度 29.00 m
形状 Box + pan
制造商 SPXS
平台类型 Starlink V2M
阶段状态 In Orbit
所有者/国家 SPXS/US

Most Searched